CW0783 Weather Reports


Display with metric or nautical units.
time (UTC)temp
F
wind
direction
speed
MPH
gust
MPH
rain 1hr
in
rain 24hr
in
rain mn
in
humidity
%
barometer
mb
20260505140304 44 256 1.0 2.0 0.05 0.02 0.02 82 1011.2
20260505130228 48 15 3.0 6.0 0.00 0.00 0.00 60 1009.9
20260505124718 48 325 1.0 3.0 0.00 0.00 0.00 64 1009.7
20260505124215 49 252 2.0 4.0 0.00 0.00 0.00 65 1010.0
20260505123711 49 346 1.0 4.0 0.00 0.00 0.00 65 1009.8
20260505123208 49 338 4.0 6.0 0.00 0.00 0.00 65 1009.6
20260505122705 49 329 2.0 3.0 0.00 0.00 0.00 65 1009.3
20260505122202 49 277 3.0 4.0 0.00 0.00 0.00 64 1009.2
20260505121658 49 339 3.0 4.0 0.00 0.00 0.00 64 1008.9
20260505121155 50 48 1.0 4.0 0.00 0.00 0.00 66 1008.6
20260505120651 50 120 0.0 4.0 0.00 0.00 0.00 64 1008.5
20260505120147 50 146 1.0 6.0 0.00 0.00 0.00 63 1008.4
20260505115641 50 171 1.0 4.0 0.00 0.00 0.00 67 1008.5
20260505115139 50 116 0.0 2.0 0.00 0.00 0.00 66 1008.4
20260505114636 50 234 1.0 1.0 0.00 0.00 0.00 67 1008.6
20260505114132 50 315 0.0 0.0 0.00 0.00 0.00 67 1008.7
20260505113628 49 113 0.0 0.0 0.00 0.00 0.00 67 1008.3
20260505113125 49 32 0.0 0.0 0.00 0.00 0.00 70 1007.6
20260505112621 49 93 0.0 0.0 0.00 0.00 0.00 71 1007.2
20260505112120 49 78 1.0 1.0 0.00 0.00 0.00 71 1007.0
20260505111619 50 111 0.0 0.0 0.00 0.00 0.00 73 1007.5
20260505111115 50 108 0.0 0.0 0.00 0.00 0.00 71 1007.5
20260505110612 50 130 0.0 1.0 0.00 0.00 0.00 68 1007.6
20260505110109 50 336 0.0 1.0 0.00 0.00 0.00 68 1007.8
20260505102045 51 95 0.0 0.0 0.00 0.00 0.00 65 1007.6
20260505101543 51 346 1.0 2.0 0.00 0.00 0.00 64 1007.9
20260505101039 51 185 0.0 1.0 0.00 0.00 0.00 66 1007.6
20260505100536 51 324 0.0 2.0 0.00 0.00 0.00 63 1007.7
20260505100033 52 9 1.0 2.0 0.00 0.00 0.00 64 1007.8
20260505095529 52 146 0.0 2.0 0.00 0.00 0.00 65 1007.5
20260505095025 53 314 2.0 2.0 0.00 0.00 0.00 66 1007.6
20260505094522 53 286 2.0 4.0 0.00 0.00 0.00 65 1007.5
20260505094018 53 180 0.0 2.0 0.00 0.00 0.00 69 1007.1
20260505093515 53 276 3.0 3.0 0.00 0.00 0.00 80 1007.2
20260505093012 54 349 0.0 0.0 0.00 0.00 0.00 93 1006.9
20260505092510 54 355 0.0 0.0 0.00 0.00 0.00 93 1006.8
20260505092008 53 302 0.0 1.0 0.00 0.00 0.00 94 1006.7
20260505091504 53 321 0.0 0.0 0.00 0.00 0.00 94 1006.4
20260505091003 53 186 0.0 0.0 0.00 0.00 0.00 93 1005.8
20260505090500 54 194 0.0 0.0 0.00 0.00 0.00 93 1006.0
20260505085957 54 115 0.0 0.0 0.00 0.00 0.00 93 1006.1
20260505085455 54 212 0.0 0.0 0.00 0.00 0.00 93 1006.0
20260505084953 54 226 0.0 0.0 0.00 0.00 0.00 92 1006.0
20260505084452 54 276 0.0 0.0 0.00 0.00 0.00 92 1005.8
20260505083949 54 145 0.0 0.0 0.00 0.00 0.00 92 1005.1
20260505083446 54 202 0.0 0.0 0.00 0.00 0.00 91 1005.4
20260505082942 54 166 0.0 0.0 0.00 0.00 0.00 92 1005.5
20260505082438 54 256 0.0 0.0 0.00 0.00 0.00 91 1005.8
20260505081935 54 209 0.0 0.0 0.00 0.00 0.00 91 1005.3
20260505081432 54 232 0.0 0.0 0.00 0.00 0.00 92 1005.3
20260505080928 54 226 0.0 0.0 0.00 0.00 0.00 92 1005.3
20260505080425 54 218 0.0 0.0 0.00 0.00 0.00 92 1005.4
20260505075920 54 233 0.0 0.0 0.00 0.00 0.00 92 1005.2
20260505075417 54 224 0.0 0.0 0.00 0.00 0.00 92 1004.8
20260505074915 54 213 0.0 0.0 0.00 0.00 0.00 92 1004.7
20260505074412 54 214 0.0 0.0 0.00 0.00 0.00 92 1004.5
20260505073909 54 226 0.0 0.0 0.00 0.00 0.00 93 1004.6
20260505073407 54 223 0.0 0.0 0.00 0.00 0.00 93 1004.7
20260505072904 54 197 0.0 0.0 0.00 0.00 0.00 94 1004.8
20260505072359 54 219 0.0 0.0 0.00 0.00 0.00 94 1004.8
20260505071856 54 246 1.0 1.0 0.00 0.00 0.00 94 1004.6
20260505071352 54 211 1.0 2.0 0.00 0.00 0.00 93 1004.4
20260505070851 54 195 0.0 0.0 0.00 0.00 0.00 93 1004.1
20260505070346 54 188 0.0 0.0 0.00 0.00 0.00 92 1004.0
20260505065842 54 197 0.0 0.0 0.00 0.00 0.00 92 1004.3
20260505065339 55 197 0.0 0.0 0.00 0.00 0.00 92 1004.3
20260505064836 55 203 0.0 0.0 0.00 0.00 0.00 91 1004.2
20260505064333 55 203 0.0 0.0 0.00 0.00 0.00 91 1004.2
20260505063831 55 213 0.0 1.0 0.00 0.00 0.00 91 1004.1
20260505063327 55 211 1.0 2.0 0.00 0.00 0.00 91 1004.1
20260505062824 55 202 2.0 2.0 0.00 0.00 0.00 91 1003.8
20260505062321 55 223 0.0 0.0 0.00 0.00 0.00 90 1003.7
20260505061818 55 212 1.0 1.0 0.00 0.00 0.00 90 1003.9
20260505061316 55 208 0.0 1.0 0.00 0.00 0.00 90 1003.8
20260505060813 56 215 2.0 2.0 0.00 0.00 0.00 89 1003.4
20260505060310 56 214 0.0 0.0 0.00 0.00 0.00 89 1003.3
20260505055806 56 212 0.0 0.0 0.00 0.00 0.00 88 1003.2
20260505055303 56 251 1.0 1.0 0.00 0.00 0.00 89 1003.2
20260505054759 56 246 1.0 2.0 0.00 0.00 0.00 89 1003.4
20260505054257 56 226 0.0 0.0 0.00 0.00 0.00 89 1003.3
20260505053755 56 248 1.0 2.0 0.00 0.00 0.00 88 1003.5
20260505053251 56 241 1.0 3.0 0.00 0.00 0.00 88 1003.5
20260505052749 56 215 2.0 4.0 0.00 0.00 0.00 88 1003.4
20260505052245 57 215 2.0 3.0 0.00 0.00 0.00 88 1003.6
20260505051742 57 188 3.0 6.0 0.00 0.00 0.00 88 1003.4
20260505051240 57 202 4.0 4.0 0.00 0.00 0.00 88 1003.7
20260505050738 57 301 2.0 4.0 0.00 0.00 0.00 88 1003.5
20260505050236 57 232 2.0 4.0 0.00 0.00 0.00 88 1003.3
20260505041706 58 243 3.0 4.0 0.00 0.38 0.38 87 1003.1
20260505041203 58 225 2.0 8.0 0.00 0.38 0.38 88 1003.5
20260505040700 57 248 4.0 4.0 0.00 0.38 0.38 91 1003.5
20260505040157 57 235 2.0 6.0 0.00 0.38 0.38 92 1003.1
20260505035654 56 217 2.0 3.0 0.00 0.38 0.38 92 1002.9
20260505035150 57 229 2.0 2.0 0.07 0.38 0.38 92 1002.7
20260505034647 57 231 2.0 2.0 0.07 0.38 0.38 92 1002.3
20260505034144 56 189 1.0 2.0 0.00 0.37 0.37 93 1001.9
20260505033640 56 194 4.0 6.0 0.00 0.37 0.37 94 1002.2
20260505033139 56 201 3.0 4.0 0.00 0.37 0.37 94 1002.4
20260505032637 56 202 2.0 3.0 0.00 0.37 0.37 94 1002.8
20260505032132 56 170 0.0 0.0 0.00 0.37 0.37 94 1002.9
20260505031630 56 188 0.0 0.0 0.00 0.37 0.37 94 1002.8
20260505031126 56 175 0.0 0.0 0.00 0.37 0.37 93 1002.8
20260505030623 56 183 0.0 0.0 0.00 0.37 0.37 93 1003.1
20260505030119 57 181 0.0 0.0 0.00 0.37 0.37 92 1003.0
20260505025615 57 85 0.0 0.0 0.00 0.37 0.37 91 1003.1
20260505025114 57 212 0.0 1.0 0.12 0.37 0.37 90 1003.6
20260505024611 57 227 0.0 2.0 0.24 0.37 0.37 89 1003.5
20260505024108 57 232 2.0 4.0 0.17 0.35 0.35 89 1003.7
20260505023605 57 248 2.0 10.0 0.17 0.33 0.33 90 1004.0
20260505023103 57 217 7.0 9.0 0.12 0.31 0.31 90 1004.0
20260505022600 57 245 4.0 7.0 0.12 0.30 0.30 90 1003.8
20260505022057 57 201 6.0 9.0 0.12 0.29 0.29 91 1003.9
20260505021553 57 235 4.0 4.0 0.19 0.28 0.28 90 1003.5
20260505021050 57 231 4.0 6.0 0.19 0.27 0.27 89 1003.5
20260505020550 57 227 4.0 8.0 0.07 0.25 0.25 88 1003.5
20260505020047 58 213 5.0 11.0 0.12 0.24 0.24 87 1004.0
20260505015544 58 250 6.0 10.0 0.47 0.23 0.23 85 1003.6
20260505015041 60 249 9.0 14.0 0.35 0.21 0.21 82 1003.0
20260505014538 60 226 3.0 8.0 0.07 0.15 0.15 82 1003.4
20260505014035 61 226 2.0 6.0 0.07 0.15 0.15 80 1002.5
20260505013532 61 270 4.0 8.0 0.42 0.14 0.14 80 1002.3
20260505013029 62 315 5.0 9.0 0.78 0.13 0.13 80 1002.8
20260505012527 67 183 2.0 11.0 0.42 0.07 0.07 73 1002.8
20260505012024 69 300 7.0 15.0 0.00 0.00 0.00 61 1002.0
20260505011519 72 257 7.0 10.0 0.00 0.00 0.00 55 1002.3
20260505011017 72 270 5.0 9.0 0.00 0.00 0.00 53 1001.1
20260505010512 72 237 3.0 9.0 0.00 0.00 0.00 53 1001.5
20260505010009 72 254 4.0 7.0 0.00 0.00 0.00 53 1001.3
20260505005506 72 243 4.0 7.0 0.00 0.00 0.00 53 1001.1
20260505005004 72 225 2.0 6.0 0.00 0.00 0.00 52 1001.4
20260505004500 72 225 4.0 7.0 0.00 0.00 0.00 52 1001.2
20260505003956 73 216 5.0 8.0 0.00 0.00 0.00 51 1001.3
20260505003454 73 252 6.0 9.0 0.00 0.00 0.00 51 1001.1
20260505002950 73 209 6.0 8.0 0.00 0.00 0.00 51 1000.9
20260505002446 73 228 7.0 10.0 0.00 0.00 0.00 50 1000.6
20260505001945 73 287 6.0 14.0 0.00 0.00 0.00 50 1000.3
20260505001442 72 223 4.0 8.0 0.00 0.00 0.00 51 1000.3
20260505000939 69 289 4.0 7.0 0.00 0.00 0.00 54 1000.7
20260505000437 68 351 1.0 1.0 0.00 0.00 0.00 53 1000.7
20260504235933 68 171 2.0 2.0 0.00 0.00 0.00 52 1000.7
20260504235431 70 151 0.0 2.0 0.00 0.00 0.00 49 1000.6
20260504234927 74 305 5.0 8.0 0.00 0.00 0.00 45 1001.1
20260504234424 74 239 5.0 8.0 0.00 0.00 0.00 47 1000.8
20260504233921 74 231 6.0 11.0 0.00 0.00 0.00 47 1000.9
20260504233417 74 242 5.0 7.0 0.00 0.00 0.00 47 1001.0
20260504232913 74 256 5.0 10.0 0.00 0.00 0.00 47 1000.9
20260504232411 74 260 5.0 8.0 0.00 0.00 0.00 48 1000.8
20260504231908 74 271 5.0 10.0 0.00 0.00 0.00 47 1001.0
20260504231404 74 250 6.0 8.0 0.00 0.00 0.00 47 1000.7
20260504230900 74 208 10.0 13.0 0.00 0.00 0.00 47 1000.5
20260504230357 74 252 8.0 11.0 0.00 0.00 0.00 48 1000.5
20260504225856 74 235 3.0 9.0 0.00 0.00 0.00 47 1000.7
20260504225352 74 230 7.0 11.0 0.00 0.00 0.00 47 1000.4
20260504224850 74 185 6.0 15.0 0.00 0.00 0.00 46 1000.3
20260504224346 75 209 6.0 11.0 0.00 0.00 0.00 46 1000.5
20260504223843 75 189 10.0 13.0 0.00 0.00 0.00 45 1000.6
20260504223339 75 217 6.0 17.0 0.00 0.00 0.00 46 1000.5
20260504222835 75 269 10.0 15.0 0.00 0.00 0.00 44 1000.8
20260504222332 76 224 7.0 13.0 0.00 0.00 0.00 46 1000.9
20260504221831 76 241 4.0 11.0 0.00 0.00 0.00 48 1000.8
20260504221327 76 218 6.0 11.0 0.00 0.00 0.00 47 1001.1
20260504220824 76 276 6.0 13.0 0.00 0.00 0.00 50 1000.8
20260504220321 75 199 9.0 14.0 0.00 0.00 0.00 50 1001.0
20260504215819 76 226 7.0 10.0 0.00 0.00 0.00 51 1001.1
20260504215315 76 219 5.0 15.0 0.00 0.00 0.00 52 1001.1
20260504214811 75 210 6.0 17.0 0.00 0.00 0.00 52 1000.9
20260504214308 75 248 10.0 14.0 0.00 0.00 0.00 52 1001.3
20260504213804 75 204 12.0 18.0 0.00 0.00 0.00 50 1001.4
20260504213300 75 231 6.0 13.0 0.00 0.00 0.00 51 1001.5
20260504212758 75 196 8.0 11.0 0.00 0.00 0.00 50 1001.3
20260504212254 75 239 6.0 9.0 0.00 0.00 0.00 49 1001.8
20260504211752 75 250 9.0 21.0 0.00 0.00 0.00 48 1001.5
20260504211247 75 250 8.0 15.0 0.00 0.00 0.00 50 1001.6
20260504210745 75 253 10.0 13.0 0.00 0.00 0.00 48 1001.5
20260504210242 76 290 6.0 14.0 0.00 0.00 0.00 48 1001.4
20260504205739 77 233 6.0 14.0 0.00 0.00 0.00 46 1001.4
20260504205237 76 238 5.0 11.0 0.00 0.00 0.00 43 1001.4
20260504204735 76 267 9.0 11.0 0.00 0.00 0.00 41 1001.6
20260504204233 76 206 5.0 8.0 0.00 0.00 0.00 42 1001.5
20260504203732 77 248 8.0 16.0 0.00 0.00 0.00 41 1001.5
20260504203229 78 217 8.0 11.0 0.00 0.00 0.00 41 1001.4
20260504202729 78 228 8.0 9.0 0.00 0.00 0.00 43 1001.7
20260504202227 78 241 6.0 10.0 0.00 0.00 0.00 41 1001.7
20260504201724 77 219 4.0 9.0 0.00 0.00 0.00 43 1001.6
20260504201221 77 264 6.0 10.0 0.00 0.00 0.00 42 1001.7
20260504200718 78 243 6.0 10.0 0.00 0.00 0.00 40 1001.5
20260504200214 78 277 6.0 14.0 0.00 0.00 0.00 40 1001.5
20260504195711 78 215 9.0 14.0 0.00 0.00 0.00 40 1001.6
20260504195207 78 269 6.0 17.0 0.00 0.00 0.00 42 1001.5
20260504194704 78 245 9.0 19.0 0.00 0.00 0.00 39 1001.7
20260504194200 78 212 7.0 11.0 0.00 0.00 0.00 42 1001.5
20260504193656 78 194 10.0 15.0 0.00 0.00 0.00 40 1001.6
20260504193154 78 247 7.0 11.0 0.00 0.00 0.00 41 1001.7
20260504192652 78 252 10.0 16.0 0.00 0.00 0.00 40 1001.7
20260504192150 79 236 6.0 14.0 0.00 0.00 0.00 40 1001.8
20260504191648 78 235 3.0 10.0 0.00 0.00 0.00 40 1001.8
20260504191144 78 184 8.0 14.0 0.00 0.00 0.00 39 1001.6
20260504190640 78 243 5.0 13.0 0.00 0.00 0.00 38 1001.7
20260504190137 77 215 10.0 11.0 0.00 0.00 0.00 39 1002.0
20260504185633 78 237 6.0 10.0 0.00 0.00 0.00 39 1002.0
20260504185130 78 263 11.0 21.0 0.00 0.00 0.00 38 1002.0
20260504184626 78 226 8.0 19.0 0.00 0.00 0.00 39 1002.0
20260504184121 78 242 7.0 15.0 0.00 0.00 0.00 42 1002.2
20260504183619 78 258 6.0 14.0 0.00 0.00 0.00 40 1002.3
20260504183116 77 261 4.0 15.0 0.00 0.00 0.00 43 1002.5
20260504182614 77 251 7.0 9.0 0.00 0.00 0.00 42 1002.6
20260504182111 77 251 5.0 9.0 0.00 0.00 0.00 41 1002.5
20260504181608 77 212 3.0 10.0 0.00 0.00 0.00 45 1002.6
20260504181105 77 231 5.0 9.0 0.00 0.00 0.00 44 1002.5
20260504180604 77 234 4.0 7.0 0.00 0.00 0.00 43 1002.8
20260504180103 76 256 6.0 11.0 0.00 0.00 0.00 47 1002.6
20260504175600 76 266 6.0 8.0 0.00 0.00 0.00 47 1002.7
20260504175056 76 253 3.0 10.0 0.00 0.00 0.00 49 1002.8
20260504174555 75 235 6.0 13.0 0.00 0.00 0.00 50 1002.8
20260504174051 75 282 4.0 8.0 0.00 0.00 0.00 49 1002.8
20260504173548 75 252 4.0 6.0 0.00 0.00 0.00 50 1003.0
20260504173045 74 218 5.0 10.0 0.00 0.00 0.00 51 1003.1
20260504172541 75 229 8.0 9.0 0.00 0.00 0.00 49 1003.2
20260504172038 75 264 4.0 9.0 0.00 0.00 0.00 52 1003.4
20260504171535 75 215 6.0 8.0 0.00 0.00 0.00 50 1003.4
20260504171032 75 252 4.0 6.0 0.00 0.00 0.00 48 1003.2
20260504170528 74 212 5.0 6.0 0.00 0.00 0.00 52 1003.4
20260504150912 68 163 5.0 7.0 0.00 0.00 0.00 56 1005.1
20260504150409 68 243 2.0 9.0 0.00 0.00 0.00 58 1004.9